Station History

Weather Underground - logo

Station Historical Data
Daily Summary for November 17, 2017 Units:  English    Metric   Both
« Previous Day
Next Day »
Daily Weekly Monthly Yearly Custom
  High: Low: Average:
Temperature: 64.7 °F 51.2 °F 59.1 °F
Dew Point: 58.1 °F 46.8 °F 52.6 °F
Humidity: 96 % 60 % 80 %
Wind Speed: 9.0 mph 0.0 mph 1.5 mph
Wind Gust: 9.0 mph - -
Wind:- - West
Pressure: 30.18 in 29.95 in -
Precipitation: 0.31 in    
Historical Graphs
 
 
Tabular Data for November 17, 2017
Time Temperature Dew Point Pressure Wind Wind Speed Wind Gust Humidity Rainfall Rate (Hourly)
00:00 58.4 °F 56.4 °F 29.96 in Calm     93 % 0.00 in
00:05 58.5 °F 56.8 °F 29.96 in Calm     94 % 0.00 in
00:10 58.5 °F 56.8 °F 29.96 in Calm     94 % 0.00 in
00:15 58.6 °F 56.9 °F 29.96 in Calm     94 % 0.00 in
00:20 58.6 °F 56.9 °F 29.96 in Calm     94 % 0.00 in
00:30 58.7 °F 56.7 °F 29.96 in Calm     93 % 0.00 in
00:35 58.8 °F 56.8 °F 29.96 in Calm     93 % 0.00 in
00:40 58.8 °F 56.8 °F 29.96 in Calm     93 % 0.00 in
00:45 59.0 °F 57.0 °F 29.95 in ENE 1.2 mph 1.2 mph 93 % 0.00 in
00:50 59.3 °F 57.0 °F 29.95 in Calm     92 % 0.00 in
00:55 59.5 °F 56.9 °F 29.95 in Calm     91 % 0.00 in
01:00 59.6 °F 56.7 °F 29.95 in Calm     90 % 0.00 in
01:05 59.6 °F 56.7 °F 29.96 in ENE 1.2 mph   90 % 0.00 in
01:10 59.5 °F 56.3 °F 29.96 in ENE 2.3 mph 2.3 mph 89 % 0.00 in
01:15 59.4 °F 56.5 °F 29.96 in Calm     90 % 0.00 in
01:20 59.4 °F 56.5 °F 29.96 in Calm     90 % 0.00 in
01:25 59.4 °F 56.5 °F 29.96 in Calm     90 % 0.00 in
01:30 59.3 °F 56.4 °F 29.96 in ENE 1.2 mph 1.2 mph 90 % 0.00 in
01:35 59.3 °F 56.4 °F 29.96 in ENE 1.2 mph 1.2 mph 90 % 0.00 in
01:40 59.3 °F 56.4 °F 29.96 in ENE 1.2 mph 1.2 mph 90 % 0.00 in
01:45 59.3 °F 56.4 °F 29.96 in ENE 1.2 mph   90 % 0.00 in
01:50 59.4 °F 56.5 °F 29.97 in Calm     90 % 0.00 in
01:55 59.6 °F 56.4 °F 29.97 in Calm     89 % 0.00 in
02:00 59.8 °F 56.6 °F 29.97 in Calm     89 % 0.00 in
02:05 59.8 °F 56.9 °F 29.97 in Calm     90 % 0.00 in
02:10 59.8 °F 56.9 °F 29.97 in Calm     90 % 0.00 in
02:15 59.7 °F 56.8 °F 29.96 in Calm     90 % 0.00 in
02:20 59.8 °F 56.9 °F 29.96 in Calm     90 % 0.00 in
02:25 59.9 °F 56.6 °F 29.96 in Calm   0.1 mph 89 % 0.00 in
02:30 60.1 °F 56.8 °F 29.96 in Calm     89 % 0.00 in
02:35 60.3 °F 56.7 °F 29.96 in Calm     88 % 0.00 in
02:41 60.4 °F 56.8 °F 29.97 in Calm     88 % 0.00 in
02:46 60.5 °F 56.9 °F 29.96 in Calm     88 % 0.00 in
02:51 60.5 °F 56.9 °F 29.96 in Calm     88 % 0.00 in
02:56 60.7 °F 56.8 °F 29.96 in ENE 1.2 mph 1.2 mph 87 % 0.00 in
03:01 60.8 °F 56.9 °F 29.97 in Calm     87 % 0.00 in
03:06 60.8 °F 56.9 °F 29.97 in ENE 1.2 mph   87 % 0.00 in
03:11 60.9 °F 57.0 °F 29.96 in Calm     87 % 0.00 in
03:16 61.1 °F 56.9 °F 29.96 in Calm     86 % 0.00 in
03:21 61.1 °F 57.2 °F 29.97 in Calm     87 % 0.00 in
03:26 61.1 °F 57.5 °F 29.97 in Calm     88 % 0.00 in
03:31 61.0 °F 57.4 °F 29.97 in Calm     88 % 0.01 in
03:36 60.9 °F 57.6 °F 29.96 in Calm     89 % 0.01 in
03:41 60.7 °F 57.7 °F 29.97 in Calm     90 % 0.01 in
03:46 60.6 °F 57.7 °F 29.96 in Calm     90 % 0.01 in
03:51 60.5 °F 57.6 °F 29.96 in Calm     90 % 0.01 in
03:56 60.4 °F 57.8 °F 29.96 in Calm     91 % 0.01 in
04:01 60.4 °F 57.8 °F 29.97 in Calm     91 % 0.01 in
04:06 60.4 °F 57.8 °F 29.97 in Calm     91 % 0.01 in
04:11 60.4 °F 57.8 °F 29.96 in Calm     91 % 0.01 in
04:16 60.3 °F 57.7 °F 29.96 in Calm     91 % 0.01 in
04:21 60.3 °F 57.7 °F 29.96 in Calm     91 % 0.01 in
04:26 60.2 °F 57.6 °F 29.96 in Calm     91 % 0.01 in
04:31 60.3 °F 58.0 °F 29.96 in Calm     92 % 0.00 in
04:36 60.3 °F 58.0 °F 29.96 in Calm     92 % 0.00 in
04:41 60.1 °F 57.8 °F 29.97 in Calm     92 % 0.00 in
04:46 60.1 °F 57.8 °F 29.97 in Calm     92 % 0.00 in
04:51 60.1 °F 58.1 °F 29.97 in Calm     93 % 0.00 in
04:56 60.0 °F 58.0 °F 29.97 in ENE 1.2 mph 1.2 mph 93 % 0.00 in
05:01 59.9 °F 57.9 °F 29.97 in Calm     93 % 0.01 in
05:06 59.8 °F 57.8 °F 29.97 in Calm     93 % 0.02 in
05:11 59.8 °F 57.8 °F 29.97 in Calm     93 % 0.02 in
05:16 59.8 °F 57.8 °F 29.97 in Calm     93 % 0.03 in
05:21 59.8 °F 57.8 °F 29.98 in Calm     93 % 0.05 in
05:26 59.8 °F 57.8 °F 29.98 in Calm     93 % 0.06 in
05:31 59.7 °F 58.0 °F 29.99 in Calm     94 % 0.08 in
05:36 59.6 °F 57.9 °F 29.99 in ENE 1.2 mph   94 % 0.09 in
05:41 59.5 °F 57.8 °F 29.99 in WNW 1.2 mph 1.2 mph 94 % 0.10 in
05:46 59.5 °F 57.8 °F 29.99 in Calm     94 % 0.11 in
05:51 59.4 °F 57.7 °F 30.00 in West 1.2 mph 1.2 mph 94 % 0.11 in
05:56 59.4 °F 57.7 °F 30.00 in NW 1.2 mph 1.2 mph 94 % 0.12 in
06:01 59.3 °F 57.6 °F 30.00 in WNW 3.5 mph 3.5 mph 94 % 0.11 in
06:07 59.3 °F 57.6 °F 30.01 in NW 4.6 mph 4.6 mph 94 % 0.12 in
06:12 59.2 °F 57.5 °F 30.01 in NW 2.0 mph 2.0 mph 94 % 0.12 in
06:17 59.2 °F 57.5 °F 30.01 in NW 2.0 mph 2.0 mph 94 % 0.14 in
06:22 59.1 °F 57.4 °F 30.01 in NW 3.5 mph 3.5 mph 94 % 0.15 in
06:27 58.9 °F 57.5 °F 30.01 in WNW 3.5 mph 3.5 mph 95 % 0.16 in
06:32 58.8 °F 57.4 °F 30.02 in WNW 4.6 mph 4.6 mph 95 % 0.14 in
06:37 58.6 °F 57.2 °F 30.02 in NW 3.5 mph 3.5 mph 95 % 0.14 in
06:42 58.5 °F 57.1 °F 30.03 in NW 3.5 mph 3.5 mph 95 % 0.13 in
06:47 58.4 °F 57.0 °F 30.03 in NW 3.5 mph 3.5 mph 95 % 0.12 in
06:52 58.3 °F 56.9 °F 30.04 in NW 3.5 mph 3.5 mph 95 % 0.12 in
06:57 58.3 °F 56.9 °F 30.04 in NW 2.0 mph 2.0 mph 95 % 0.12 in
07:02 58.3 °F 56.9 °F 30.04 in NW 1.2 mph 1.2 mph 95 % 0.12 in
07:07 58.3 °F 56.9 °F 30.04 in NW 3.5 mph 3.5 mph 95 % 0.11 in
07:12 58.3 °F 56.9 °F 30.05 in NW 1.2 mph 1.2 mph 95 % 0.11 in
07:17 58.3 °F 56.9 °F 30.05 in Calm     95 % 0.08 in
07:22 58.4 °F 57.0 °F 30.06 in Calm     95 % 0.05 in
07:27 58.4 °F 57.0 °F 30.06 in Calm     95 % 0.03 in
07:32 58.4 °F 57.0 °F 30.07 in Calm     95 % 0.02 in
07:37 58.5 °F 57.4 °F 30.06 in Calm     96 % 0.03 in
07:38 58.5 °F 57.4 °F 30.06 in Calm     96 % 0.03 in
07:43 58.6 °F 57.5 °F 30.07 in NW 1.2 mph 1.2 mph 96 % 0.03 in
07:48 58.6 °F 57.5 °F 30.07 in Calm     96 % 0.03 in
07:53 58.7 °F 57.6 °F 30.07 in NW 1.2 mph 1.2 mph 96 % 0.03 in
07:58 58.7 °F 57.6 °F 30.08 in Calm     96 % 0.02 in
08:03 58.8 °F 57.7 °F 30.08 in NW 1.2 mph 1.2 mph 96 % 0.02 in
08:08 58.8 °F 57.7 °F 30.08 in NW 2.0 mph 2.0 mph 96 % 0.01 in
08:13 58.8 °F 57.7 °F 30.08 in NW 2.3 mph 2.3 mph 96 % 0.01 in
08:18 58.7 °F 57.6 °F 30.09 in NW 3.5 mph 3.5 mph 96 % 0.02 in
08:23 58.1 °F 56.7 °F 30.09 in WNW 8.1 mph 8.1 mph 95 % 0.03 in
08:28 56.8 °F 54.8 °F 30.10 in WNW 5.8 mph 5.8 mph 93 % 0.03 in
08:33 55.9 °F 54.2 °F 30.10 in WNW 4.6 mph 4.6 mph 94 % 0.03 in
08:38 55.5 °F 53.8 °F 30.10 in NW 5.8 mph 5.8 mph 94 % 0.03 in
08:43 55.2 °F 53.5 °F 30.10 in West 6.0 mph 6.0 mph 94 % 0.03 in
08:48 54.9 °F 53.2 °F 30.11 in NNW 3.5 mph 3.5 mph 94 % 0.03 in
08:53 54.9 °F 53.2 °F 30.11 in NW 3.5 mph 3.5 mph 94 % 0.03 in
08:58 54.8 °F 53.1 °F 30.11 in North 3.5 mph 3.5 mph 94 % 0.03 in
09:03 54.7 °F 53.0 °F 30.11 in NNW 5.8 mph 5.8 mph 94 % 0.03 in
09:08 54.5 °F 52.8 °F 30.12 in NW 6.9 mph 6.9 mph 94 % 0.03 in
09:13 54.3 °F 52.6 °F 30.12 in WNW 5.8 mph 5.8 mph 94 % 0.03 in
09:18 54.2 °F 52.5 °F 30.12 in NW 3.5 mph 3.5 mph 94 % 0.02 in
09:23 54.1 °F 52.4 °F 30.12 in North 5.8 mph 5.8 mph 94 % 0.02 in
09:28 54.0 °F 52.0 °F 30.13 in NW 9.0 mph 9.0 mph 93 % 0.02 in
09:33 53.8 °F 51.8 °F 30.13 in NW 5.8 mph 5.8 mph 93 % 0.02 in
09:38 53.9 °F 52.2 °F 30.13 in NW 4.6 mph 4.6 mph 94 % 0.01 in
09:43 54.0 °F 52.3 °F 30.13 in NNW 2.3 mph 2.3 mph 94 % 0.01 in
09:48 53.9 °F 51.9 °F 30.13 in NW 3.5 mph 3.5 mph 93 % 0.01 in
09:53 54.0 °F 52.0 °F 30.13 in NW 3.5 mph 3.5 mph 93 % 0.01 in
09:58 54.2 °F 52.2 °F 30.13 in NW 3.5 mph 3.5 mph 93 % 0.01 in
10:03 54.6 °F 52.6 °F 30.13 in NNE 5.0 mph 5.0 mph 93 % 0.01 in
10:08 55.0 °F 52.7 °F 30.13 in WNW 5.0 mph 5.0 mph 92 % 0.01 in
10:13 55.3 °F 52.4 °F 30.13 in WSW 4.0 mph 4.0 mph 90 % 0.01 in
10:18 55.8 °F 52.3 °F 30.14 in North 5.8 mph 5.8 mph 88 % 0.01 in
10:23 56.2 °F 52.4 °F 30.14 in NW 8.1 mph 8.1 mph 87 % 0.00 in
10:24 56.3 °F 52.2 °F 30.14 in NW 4.6 mph 4.6 mph 86 % 0.00 in
10:29 56.6 °F 52.5 °F 30.14 in NW 4.6 mph 4.6 mph 86 % 0.00 in
10:34 56.9 °F 52.4 °F 30.14 in NW 5.8 mph 5.8 mph 85 % 0.00 in
10:39 57.4 °F 52.6 °F 30.14 in WNW 5.8 mph 5.8 mph 84 % 0.00 in
10:44 57.8 °F 52.7 °F 30.14 in NW 4.6 mph 4.6 mph 83 % 0.00 in
10:49 58.1 °F 53.0 °F 30.14 in NNE 4.6 mph 4.6 mph 83 % 0.00 in
10:54 58.4 °F 53.3 °F 30.14 in NW 4.0 mph 4.0 mph 83 % 0.00 in
10:59 58.6 °F 52.4 °F 30.14 in NNE 4.6 mph 4.6 mph 80 % 0.00 in
11:04 58.9 °F 53.1 °F 30.14 in WNW 3.5 mph 3.5 mph 81 % 0.00 in
11:09 59.5 °F 53.7 °F 30.14 in NW 2.3 mph 2.3 mph 81 % 0.00 in
11:14 59.9 °F 53.4 °F 30.14 in NW 4.0 mph 4.0 mph 79 % 0.00 in
11:19 60.1 °F 52.5 °F 30.14 in WNW 3.5 mph 3.5 mph 76 % 0.00 in
11:25 60.4 °F 52.8 °F 30.13 in NW 3.5 mph 3.5 mph 76 % 0.00 in
11:30 60.5 °F 52.5 °F 30.13 in NW 3.5 mph 3.5 mph 75 % 0.00 in
11:35 60.8 °F 52.5 °F 30.13 in NW 8.1 mph 8.1 mph 74 % 0.00 in
11:40 61.2 °F 52.8 °F 30.13 in NW 3.5 mph 3.5 mph 74 % 0.00 in
11:45 61.6 °F 53.2 °F 30.13 in WNW 3.5 mph 3.5 mph 74 % 0.00 in
11:50 61.6 °F 52.9 °F 30.12 in NNW 3.5 mph 3.5 mph 73 % 0.00 in
11:55 61.7 °F 52.6 °F 30.12 in WNW 3.5 mph 3.5 mph 72 % 0.00 in
12:00 61.8 °F 51.9 °F 30.12 in WNW 4.6 mph 4.6 mph 70 % 0.00 in
12:05 62.0 °F 52.5 °F 30.12 in NW 3.5 mph 3.5 mph 71 % 0.00 in
12:10 62.4 °F 52.1 °F 30.12 in NW 3.5 mph 3.5 mph 69 % 0.00 in
12:15 62.5 °F 52.6 °F 30.12 in NW 3.5 mph 3.5 mph 70 % 0.00 in
12:20 62.6 °F 52.7 °F 30.12 in NW 3.5 mph 3.5 mph 70 % 0.00 in
12:25 63.1 °F 53.2 °F 30.11 in NW 3.5 mph 3.5 mph 70 % 0.00 in
12:30 63.2 °F 52.5 °F 30.11 in WNW 3.5 mph 3.5 mph 68 % 0.00 in
12:35 63.2 °F 51.6 °F 30.11 in NW 3.5 mph 3.5 mph 66 % 0.00 in
12:40 63.3 °F 52.6 °F 30.11 in West 3.5 mph 3.5 mph 68 % 0.00 in
12:45 63.4 °F 51.8 °F 30.11 in NNE 4.6 mph 4.6 mph 66 % 0.00 in
12:50 63.3 °F 51.7 °F 30.11 in SW 3.0 mph 3.0 mph 66 % 0.00 in
12:55 63.2 °F 51.2 °F 30.11 in NW 5.0 mph 5.0 mph 65 % 0.00 in
13:00 63.3 °F 50.9 °F 30.12 in NW 3.5 mph 3.5 mph 64 % 0.00 in
13:05 63.5 °F 51.1 °F 30.12 in NW 3.5 mph 3.5 mph 64 % 0.00 in
13:10 63.7 °F 50.9 °F 30.12 in NW 2.3 mph 2.3 mph 63 % 0.00 in
13:15 63.7 °F 50.9 °F 30.12 in NW 3.5 mph 3.5 mph 63 % 0.00 in
13:20 63.8 °F 51.0 °F 30.12 in SSW 2.3 mph 2.3 mph 63 % 0.00 in
13:25 63.9 °F 51.1 °F 30.11 in NW 3.5 mph 3.5 mph 63 % 0.00 in
13:30 64.1 °F 50.8 °F 30.11 in NW 4.0 mph 4.0 mph 62 % 0.00 in
13:35 64.0 °F 51.6 °F 30.11 in NW 1.2 mph 1.2 mph 64 % 0.00 in
13:40 64.3 °F 51.9 °F 30.11 in NW 3.5 mph 3.5 mph 64 % 0.00 in
13:45 64.2 °F 50.9 °F 30.11 in WNW 1.2 mph   62 % 0.00 in
13:50 64.3 °F 51.4 °F 30.11 in NW 3.5 mph 3.5 mph 63 % 0.00 in
13:55 64.3 °F 51.0 °F 30.11 in NNE 2.3 mph 2.3 mph 62 % 0.00 in
14:00 64.5 °F 51.6 °F 30.11 in NW 1.2 mph   63 % 0.00 in
14:05 64.6 °F 50.8 °F 30.11 in NW 5.8 mph 5.8 mph 61 % 0.00 in
14:10 64.6 °F 51.7 °F 30.11 in WNW 2.3 mph 2.3 mph 63 % 0.00 in
14:15 64.7 °F 51.4 °F 30.11 in NW 3.0 mph 3.0 mph 62 % 0.00 in
14:20 64.7 °F 50.9 °F 30.11 in West 1.2 mph 1.2 mph 61 % 0.00 in
14:25 64.6 °F 50.8 °F 30.11 in Calm   0.1 mph 61 % 0.00 in
14:31 64.7 °F 50.9 °F 30.11 in WNW 3.5 mph 3.5 mph 61 % 0.00 in
14:36 64.5 °F 50.7 °F 30.11 in NW 3.5 mph 3.5 mph 61 % 0.00 in
14:41 64.3 °F 50.6 °F 30.10 in WNW 1.2 mph 1.2 mph 61 % 0.00 in
14:46 64.1 °F 50.4 °F 30.10 in WNW 1.2 mph 1.2 mph 61 % 0.00 in
14:51 64.1 °F 50.8 °F 30.10 in NW 2.0 mph 2.0 mph 62 % 0.00 in
14:53 64.2 °F 51.3 °F 30.10 in NW 2.3 mph 2.3 mph 63 % 0.00 in
14:58 64.3 °F 51.0 °F 30.10 in Calm     62 % 0.00 in
15:03 64.5 °F 50.7 °F 30.10 in WNW 3.5 mph 3.5 mph 61 % 0.00 in
15:08 64.6 °F 50.4 °F 30.10 in NW 3.5 mph 3.5 mph 60 % 0.00 in
15:13 64.4 °F 50.2 °F 30.10 in West 3.5 mph 3.5 mph 60 % 0.00 in
15:19 63.8 °F 49.6 °F 30.10 in NW 2.3 mph 2.3 mph 60 % 0.00 in
15:24 63.5 °F 49.4 °F 30.10 in Calm     60 % 0.00 in
15:29 63.4 °F 49.3 °F 30.10 in NW 2.3 mph   60 % 0.00 in
15:34 63.4 °F 49.3 °F 30.09 in NW 2.3 mph 2.3 mph 60 % 0.00 in
15:39 63.2 °F 50.0 °F 30.09 in WNW 1.2 mph   62 % 0.00 in
15:43 62.9 °F 50.5 °F 30.09 in Calm     64 % 0.00 in
15:49 62.6 °F 51.1 °F 30.09 in Calm   0.2 mph 66 % 0.00 in
15:54 62.3 °F 50.4 °F 30.10 in NW 1.2 mph 1.2 mph 65 % 0.00 in
15:59 62.2 °F 51.1 °F 30.10 in Calm     67 % 0.00 in
16:04 62.0 °F 51.3 °F 30.10 in West 1.2 mph   68 % 0.00 in
16:09 61.8 °F 51.5 °F 30.10 in West 1.2 mph 1.2 mph 69 % 0.00 in
16:14 61.7 °F 51.4 °F 30.10 in West 1.2 mph   69 % 0.00 in
16:19 61.6 °F 51.7 °F 30.10 in Calm     70 % 0.00 in
16:24 61.5 °F 52.0 °F 30.10 in Calm     71 % 0.00 in
16:29 61.4 °F 51.9 °F 30.10 in Calm     71 % 0.00 in
16:34 61.4 °F 51.9 °F 30.10 in Calm     71 % 0.00 in
16:39 61.3 °F 51.8 °F 30.10 in Calm     71 % 0.00 in
16:44 61.3 °F 51.4 °F 30.10 in Calm     70 % 0.00 in
16:49 61.2 °F 51.7 °F 30.10 in Calm     71 % 0.00 in
16:54 61.1 °F 51.6 °F 30.10 in Calm     71 % 0.00 in
16:59 61.0 °F 51.5 °F 30.10 in Calm     71 % 0.00 in
17:04 61.0 °F 51.1 °F 30.10 in Calm     70 % 0.00 in
17:09 60.9 °F 51.0 °F 30.10 in Calm     70 % 0.00 in
17:14 60.9 °F 50.7 °F 30.11 in Calm     69 % 0.00 in
17:19 60.9 °F 51.0 °F 30.11 in Calm     70 % 0.00 in
17:24 60.8 °F 51.0 °F 30.11 in Calm     70 % 0.00 in
17:29 60.7 °F 51.2 °F 30.11 in Calm     71 % 0.00 in
17:34 60.6 °F 51.5 °F 30.11 in Calm     72 % 0.00 in
17:39 60.4 °F 51.7 °F 30.11 in Calm     73 % 0.00 in
17:40 60.4 °F 51.7 °F 30.11 in Calm     73 % 0.00 in
17:45 60.3 °F 51.6 °F 30.11 in Calm     73 % 0.00 in
17:50 60.2 °F 50.8 °F 30.12 in Calm     71 % 0.00 in
17:55 60.2 °F 50.4 °F 30.12 in Calm     70 % 0.00 in
18:00 60.2 °F 50.4 °F 30.12 in Calm     70 % 0.00 in
18:05 60.1 °F 49.5 °F 30.12 in Calm     68 % 0.00 in
18:10 60.1 °F 49.5 °F 30.12 in Calm   0.2 mph 68 % 0.00 in
18:15 60.0 °F 49.0 °F 30.12 in WNW 1.2 mph   67 % 0.00 in
18:20 59.9 °F 48.9 °F 30.13 in Calm     67 % 0.00 in
18:25 59.7 °F 48.7 °F 30.13 in Calm     67 % 0.00 in
18:30 59.6 °F 48.6 °F 30.13 in NW 2.0 mph 2.0 mph 67 % 0.00 in
18:36 59.5 °F 48.1 °F 30.13 in NW 2.3 mph   66 % 0.00 in
18:41 59.4 °F 48.4 °F 30.13 in Calm     67 % 0.00 in
18:46 59.3 °F 48.3 °F 30.13 in NW 1.2 mph   67 % 0.00 in
18:51 59.1 °F 47.7 °F 30.14 in NW 2.3 mph 2.3 mph 66 % 0.00 in
18:52 59.1 °F 47.7 °F 30.14 in WNW 1.2 mph   66 % 0.00 in
18:57 59.0 °F 47.7 °F 30.14 in Calm     66 % 0.00 in
19:02 58.8 °F 47.9 °F 30.14 in Calm     67 % 0.00 in
19:07 58.6 °F 47.3 °F 30.14 in NW 1.2 mph 1.2 mph 66 % 0.00 in
19:12 58.4 °F 47.5 °F 30.14 in NW 1.2 mph   67 % 0.00 in
19:17 58.2 °F 47.3 °F 30.14 in Calm     67 % 0.00 in
19:22 58.0 °F 47.5 °F 30.14 in Calm     68 % 0.00 in
19:25 57.9 °F 47.4 °F 30.14 in Calm   0.2 mph 68 % 0.00 in
19:26 57.9 °F 47.4 °F 30.14 in NNW 1.2 mph   68 % 0.00 in
19:31 57.8 °F 47.3 °F 30.15 in NW 1.2 mph 1.2 mph 68 % 0.00 in
19:33 57.8 °F 47.3 °F 30.15 in Calm   0.1 mph 68 % 0.00 in
19:38 57.7 °F 47.6 °F 30.15 in Calm     69 % 0.00 in
19:47 57.6 °F 47.5 °F 30.15 in NNW 1.2 mph 1.2 mph 69 % 0.00 in
19:52 57.4 °F 47.3 °F 30.16 in Calm     69 % 0.00 in
19:57 57.2 °F 47.1 °F 30.16 in Calm     69 % 0.00 in
20:02 57.0 °F 47.3 °F 30.16 in Calm     70 % 0.00 in
20:07 56.8 °F 47.1 °F 30.17 in Calm     70 % 0.00 in
20:12 56.6 °F 47.3 °F 30.17 in WNW 1.2 mph 1.2 mph 71 % 0.00 in
20:17 56.5 °F 47.2 °F 30.17 in Calm     71 % 0.00 in
20:22 56.3 °F 47.4 °F 30.17 in Calm     72 % 0.00 in
20:27 56.2 °F 47.7 °F 30.17 in Calm     73 % 0.00 in
20:32 56.1 °F 47.6 °F 30.17 in Calm     73 % 0.00 in
20:37 55.9 °F 47.4 °F 30.17 in Calm     73 % 0.00 in
20:42 55.9 °F 47.7 °F 30.17 in Calm     74 % 0.00 in
20:47 55.8 °F 47.6 °F 30.17 in Calm     74 % 0.00 in
20:52 55.8 °F 47.6 °F 30.17 in Calm     74 % 0.00 in
20:57 55.8 °F 47.6 °F 30.17 in Calm     74 % 0.00 in
21:02 55.9 °F 47.7 °F 30.17 in Calm     74 % 0.00 in
21:07 55.9 °F 47.7 °F 30.17 in Calm     74 % 0.00 in
21:13 55.9 °F 47.7 °F 30.17 in Calm     74 % 0.00 in
21:18 55.9 °F 47.4 °F 30.18 in WNW 1.2 mph 1.2 mph 73 % 0.00 in
21:23 55.9 °F 47.7 °F 30.18 in Calm   0.1 mph 74 % 0.00 in
21:28 55.9 °F 47.7 °F 30.18 in Calm     74 % 0.00 in
21:33 55.8 °F 48.0 °F 30.18 in Calm     75 % 0.00 in
21:38 55.8 °F 47.6 °F 30.18 in NNE 1.2 mph 1.2 mph 74 % 0.00 in
21:43 55.8 °F 47.6 °F 30.18 in Calm     74 % 0.00 in
21:48 55.8 °F 47.6 °F 30.18 in Calm     74 % 0.00 in
21:53 55.7 °F 47.5 °F 30.17 in Calm     74 % 0.00 in
21:58 55.5 °F 48.1 °F 30.17 in Calm     76 % 0.00 in
22:03 55.3 °F 47.9 °F 30.17 in NNE 1.0 mph 1.0 mph 76 % 0.00 in
22:08 55.1 °F 47.7 °F 30.17 in Calm     76 % 0.00 in
22:13 55.0 °F 47.6 °F 30.17 in Calm     76 % 0.00 in
22:18 54.9 °F 48.2 °F 30.17 in Calm     78 % 0.00 in
22:23 54.8 °F 48.4 °F 30.17 in Calm     79 % 0.00 in
22:28 54.7 °F 48.3 °F 30.17 in Calm     79 % 0.00 in
22:33 54.5 °F 48.5 °F 30.17 in Calm     80 % 0.00 in
22:38 54.3 °F 48.3 °F 30.17 in Calm     80 % 0.00 in
22:43 54.1 °F 48.1 °F 30.17 in Calm     80 % 0.00 in
22:48 54.0 °F 48.0 °F 30.17 in Calm     80 % 0.00 in
22:53 53.9 °F 48.2 °F 30.17 in Calm     81 % 0.00 in
22:58 54.0 °F 48.0 °F 30.17 in Calm     80 % 0.00 in
23:03 54.0 °F 48.0 °F 30.17 in Calm     80 % 0.00 in
23:08 54.0 °F 47.6 °F 30.17 in Calm     79 % 0.00 in
23:13 53.9 °F 47.5 °F 30.17 in Calm     79 % 0.00 in
23:18 53.8 °F 47.4 °F 30.17 in Calm     79 % 0.00 in
23:23 53.6 °F 47.6 °F 30.17 in Calm     80 % 0.00 in
23:28 53.3 °F 47.3 °F 30.17 in North 1.2 mph   80 % 0.00 in
23:33 53.1 °F 47.4 °F 30.17 in Calm     81 % 0.00 in
23:38 52.8 °F 47.1 °F 30.17 in Calm     81 % 0.00 in
23:43 52.6 °F 47.3 °F 30.17 in Calm     82 % 0.00 in
23:48 52.2 °F 46.9 °F 30.17 in Calm     82 % 0.00 in
23:49 52.1 °F 46.8 °F 30.17 in Calm     82 % 0.00 in
23:54 51.7 °F 47.0 °F 30.17 in Calm     84 % 0.00 in
23:59 51.2 °F 46.8 °F 30.18 in Calm     85 % 0.00 in
Park Place, Exeter, Tulare County, California, USA
Compliments of Weather Underground - 2.75 mb